EW0631 Weather Reports


time (UTC)temp
C
wind
direction
speed
KPH
gust
KPH
rain 1hr
cm
rain 24hr
cm
rain mn
cm
humidity
%
barometer
mb
20260906131609 27 212 0.0 1.6 0.00 0.00 0.00 81 1014.2
20260906130051 27 211 0.0 1.6 0.00 0.00 0.00 84 1014.2
20260906124550 26 175 0.0 1.6 0.00 0.00 0.00 86 1014.0
20260906123051 26 155 0.0 0.0 0.00 0.00 0.00 87 1014.0
20260906121531 26 133 1.6 11.3 0.00 0.00 0.00 84 1013.9
20260906120028 -17 0.0 0.0 0.00 0.00 0.00 1013.1
20260906114506 -17 0.0 0.0 0.00 0.00 0.00 1012.9
20260906113001 -17 0.0 0.0 0.00 0.00 0.00 1012.6
20260906111545 -17 0.0 0.0 0.00 0.00 0.00 1012.6
20260906110041 -17 0.0 0.0 0.00 0.00 0.00 1012.5
20260906104538 -17 0.0 0.0 0.00 0.00 0.00 1012.4
20260906103032 -17 0.0 0.0 0.00 0.00 0.00 1012.4
20260906101528 -17 0.0 0.0 0.00 0.00 0.00 1012.4
20260906100023 -17 0.0 0.0 0.00 0.00 0.00 1012.3
20260906094519 -17 0.0 0.0 0.00 0.00 0.00 1012.2
20260906093028 26 309 0.0 0.0 0.00 0.00 0.00 87 1012.4
20260906091559 26 309 0.0 0.0 0.00 0.00 0.00 87 1012.2
20260906090101 26 309 0.0 0.0 0.00 0.00 0.00 88 1012.1
20260906084548 26 309 0.0 0.0 0.00 0.00 0.00 88 1012.2
20260906083037 26 309 0.0 0.0 0.00 0.00 0.00 88 1012.3
20260906081526 27 309 0.0 0.0 0.00 0.00 0.00 85 1012.1
20260906080020 27 309 0.0 0.0 0.00 0.00 0.00 82 1011.9
20260906074520 27 309 0.0 0.0 0.00 0.00 0.00 83 1011.9
20260906073021 27 309 0.0 0.0 0.00 0.00 0.00 85 1011.9
20260906071521 27 309 0.0 0.0 0.00 0.00 0.00 85 1011.9
20260906070019 27 309 0.0 1.6 0.00 0.00 0.00 86 1012.0
20260906064525 27 309 0.0 0.0 0.00 0.00 0.00 86 1012.1
20260906063017 27 309 0.0 0.0 0.00 0.00 0.00 85 1012.3
20260906061559 27 309 0.0 0.0 0.00 0.00 0.00 85 1012.4
20260906060104 27 309 0.0 0.0 0.00 0.00 0.00 84 1012.5
20260906054541 27 309 0.0 0.0 0.00 0.00 0.00 83 1012.3
20260906053040 27 309 0.0 0.0 0.00 0.00 0.00 82 1012.3
20260906051522 27 309 0.0 0.0 0.00 0.00 0.00 82 1012.3
20260906050020 27 331 0.0 0.0 0.00 0.00 0.00 85 1012.3
20260906044501 27 331 0.0 0.0 0.00 0.00 0.00 84 1012.2
20260906043059 28 331 0.0 0.0 0.00 0.00 0.00 83 1012.2
20260906041546 28 331 0.0 0.0 0.00 0.00 0.00 83 1012.1
20260906040046 28 331 0.0 0.0 0.00 0.00 0.00 81 1012.1
20260906034526 28 331 0.0 0.0 0.00 0.00 0.00 81 1012.0
20260906033020 28 331 0.0 0.0 0.00 0.00 0.00 81 1012.1
20260906031501 29 331 0.0 0.0 0.00 0.00 0.00 80 1012.0
20260906030101 29 331 0.0 0.0 0.00 0.00 0.00 79 1012.0
20260906024541 29 331 0.0 0.0 0.00 0.00 0.00 78 1012.0
20260906023045 29 331 0.0 0.0 0.00 0.00 0.00 77 1011.9
20260906021521 30 331 0.0 0.0 0.00 0.00 0.00 77 1011.8
20260906020019 30 331 0.0 0.0 0.00 0.00 0.00 76 1011.4
20260906014611 30 331 0.0 0.0 0.00 0.00 0.00 72 1011.2
20260906013057 31 331 0.0 0.0 0.00 0.00 0.00 70 1011.1
20260906011535 31 331 0.0 0.0 0.00 0.00 0.00 66 1011.0
20260906010032 32 331 0.0 0.0 0.00 0.00 0.00 62 1010.9
20260906004510 33 331 0.0 0.0 0.00 0.00 0.00 57 1010.8
20260906003007 34 331 0.0 0.0 0.00 0.00 0.00 56 1010.8
20260906001548 35 331 0.0 0.0 0.00 0.00 0.00 52 1010.9
20260906000046 36 331 0.0 0.0 0.00 0.00 0.00 50 1011.0
20260905234528 37 330 0.0 0.0 0.00 0.00 0.00 47 1011.1
20260905233028 38 331 0.0 0.0 0.00 0.00 0.00 43 1011.2
20260905231510 38 331 0.0 1.6 0.00 0.00 0.00 42 1011.1
20260905230009 38 331 0.0 1.6 0.00 0.00 0.00 42 1011.1
20260905224608 38 326 0.0 1.6 0.00 0.00 0.00 42 1011.1
20260905223054 38 327 0.0 1.6 0.00 0.00 0.00 42 1011.1
20260905221538 39 252 0.0 1.6 0.00 0.00 0.00 40 1011.2
20260905220033 39 130 0.0 3.2 0.00 0.00 0.00 40 1011.2
20260905214513 39 86 0.0 3.2 0.00 0.00 0.00 39 1011.3
20260905213011 38 98 0.0 6.4 0.00 0.00 0.00 41 1011.4
20260905211558 38 333 0.0 3.2 0.00 0.00 0.00 41 1011.3
20260905210057 39 321 0.0 3.2 0.00 0.00 0.00 40 1011.5
20260905204554 38 287 1.6 8.0 0.00 0.00 0.00 41 1011.6
20260905203053 38 323 0.0 6.4 0.00 0.00 0.00 40 1011.9
20260905201559 38 303 0.0 8.0 0.00 0.00 0.00 44 1012.2
20260905200051 38 343 0.0 8.0 0.00 0.00 0.00 42 1012.4
20260905194546 38 39 0.0 9.7 0.00 0.00 0.00 46 1012.6
20260905193043 38 199 0.0 6.4 0.00 0.00 0.00 45 1012.9
20260905191527 38 267 0.0 6.4 0.00 0.00 0.00 45 1013.3
20260905190028 37 281 0.0 8.0 0.00 0.00 0.00 45 1013.4
20260905184525 37 261 0.0 4.8 0.00 0.00 0.00 46 1013.5
20260905183024 37 166 0.0 6.4 0.00 0.00 0.00 47 1013.6
20260905181522 37 310 1.6 8.0 0.00 0.00 0.00 46 1013.6
20260905180019 37 347 0.0 12.9 0.00 0.00 0.00 47 1013.7
20260905174520 37 288 0.0 8.0 0.00 0.00 0.00 50 1013.9
20260905173025 37 217 0.0 9.7 0.00 0.00 0.00 51 1014.0
20260905171612 36 295 0.0 6.4 0.00 0.00 0.00 53 1014.3
20260905170055 36 165 0.0 6.4 0.00 0.00 0.00 55 1014.4
20260905164551 36 153 0.0 3.2 0.00 0.00 0.00 56 1014.5
20260905163030 35 286 0.0 6.4 0.00 0.00 0.00 59 1014.7
20260905161528 34 292 0.0 8.0 0.00 0.00 0.00 62 1014.8
20260905160021 34 305 0.0 8.0 0.00 0.00 0.00 62 1014.8
20260905154515 33 203 0.0 1.6 0.00 0.00 0.00 64 1015.0
20260905153018 33 297 0.0 6.4 0.00 0.00 0.00 65 1014.9
20260905151514 33 281 0.0 3.2 0.00 0.00 0.00 65 1014.9
20260905150013 32 259 0.0 3.2 0.00 0.00 0.00 66 1014.8
20260905144513 32 259 0.0 3.2 0.00 0.00 0.00 65 1015.0
20260905143016 31 252 0.0 3.2 0.00 0.00 0.00 68 1014.9
20260905141513 30 251 0.0 1.6 0.00 0.00 0.00 71 1014.7
20260905140055 30 254 0.0 3.2 0.00 0.00 0.00 72 1014.7
20260905134554 29 254 0.0 1.6 0.00 0.00 0.00 73 1014.7
20260905133035 28 254 0.0 0.0 0.00 0.00 0.00 79 1014.6